When you browse on this site, cookies collect data to enhance your experience and personalize the content and advertising you see.
Visit our Privacy Policy to learn more. By continuing to use the site, you agree to this use of cookies and data.
  • In Portugal
  • List of Countries
  • For 7 days
  • Water Temperature
  • Satellite Maps
  • Weather Map
  • Weather Widgets
  • user-avatar
    Login

    Hourly Weather Demidova

    Today, 22 July, Monday

    Time Temperature Precipitation Wind Pressure Humidity
    00:00 +16°C° 0 mm 2 mps 749 mmHg 92%
    01:00 +15°C° 0 mm 2 mps 749 mmHg 93%
    02:00 +15°C° 0 mm 2 mps 748 mmHg 94%
    03:00 +14°C° 0 mm 2 mps 748 mmHg 95%
    04:00 +14°C° 0 mm 2 mps 748 mmHg 96%
    05:00 +15°C° 0 mm 2 mps 748 mmHg 94%
    06:00 +16°C° 0 mm 2 mps 749 mmHg 91%
    07:00 +17°C° 0 mm 2 mps 749 mmHg 89%
    08:00 +18°C° 0.1 mm 3 mps 749 mmHg 85%
    09:00 +19°C° 0.1 mm 3 mps 748 mmHg 81%
    10:00 +20°C° 0 mm 3 mps 748 mmHg 76%
    11:00 +21°C° 0.4 mm 3 mps 748 mmHg 74%
    12:00 +21°C° 0.4 mm 3 mps 748 mmHg 72%
    13:00 +22°C° 0.4 mm 3 mps 748 mmHg 71%
    14:00 +22°C° 0.3 mm 3 mps 747 mmHg 70%
    15:00 +22°C° 0.3 mm 3 mps 747 mmHg 70%
    16:00 +22°C° 0.3 mm 3 mps 747 mmHg 70%
    17:00 +21°C° 0.4 mm 3 mps 747 mmHg 75%
    18:00 +21°C° 0.4 mm 3 mps 747 mmHg 81%
    19:00 +20°C° 0.4 mm 2 mps 746 mmHg 86%
    20:00 +19°C° 0.3 mm 2 mps 746 mmHg 89%
    21:00 +17°C° 0.3 mm 2 mps 746 mmHg 91%
    22:00 +16°C° 0.3 mm 2 mps 746 mmHg 94%
    23:00 +16°C° 0 mm 2 mps 746 mmHg 94%

    Tomorrow, 23 July, Tuesday

    Time Temperature Precipitation Wind Pressure Humidity
    00:00 +15°C° 0 mm 2 mps 746 mmHg 95%
    01:00 +15°C° 0 mm 2 mps 746 mmHg 96%
    02:00 +14°C° 0 mm 2 mps 746 mmHg 96%
    03:00 +14°C° 0 mm 2 mps 746 mmHg 97%
    04:00 +14°C° 0 mm 2 mps 746 mmHg 97%
    05:00 +15°C° 0 mm 2 mps 746 mmHg 96%
    06:00 +15°C° 0 mm 2 mps 746 mmHg 95%
    07:00 +16°C° 0 mm 2 mps 747 mmHg 93%
    08:00 +18°C° 0 mm 3 mps 747 mmHg 87%
    09:00 +19°C° 0 mm 3 mps 747 mmHg 81%
    10:00 +20°C° 0 mm 3 mps 747 mmHg 75%
    11:00 +21°C° 0.5 mm 3 mps 747 mmHg 75%
    12:00 +21°C° 0.5 mm 3 mps 747 mmHg 74%
    13:00 +22°C° 0.5 mm 4 mps 747 mmHg 74%
    14:00 +22°C° 0.6 mm 4 mps 748 mmHg 74%
    15:00 +22°C° 0.6 mm 4 mps 748 mmHg 74%
    16:00 +22°C° 0.6 mm 4 mps 748 mmHg 74%
    17:00 +22°C° 0.4 mm 3 mps 748 mmHg 78%
    18:00 +21°C° 0.4 mm 3 mps 748 mmHg 82%
    19:00 +20°C° 0.4 mm 3 mps 748 mmHg 85%
    20:00 +19°C° 0.1 mm 3 mps 748 mmHg 89%
    21:00 +18°C° 0.1 mm 3 mps 749 mmHg 92%
    22:00 +17°C° 0.1 mm 2 mps 749 mmHg 95%
    23:00 +16°C° 0 mm 2 mps 749 mmHg 95%

    Day after tomorrow, 24 July, Wednesday

    Time Temperature Precipitation Wind Pressure Humidity
    00:00 +16°C° 0 mm 2 mps 749 mmHg 95%
    01:00 +16°C° 0 mm 2 mps 749 mmHg 95%
    02:00 +15°C° 0 mm 2 mps 750 mmHg 95%
    03:00 +15°C° 0 mm 2 mps 750 mmHg 95%
    04:00 +15°C° 0 mm 2 mps 750 mmHg 95%
    05:00 +16°C° 0 mm 2 mps 750 mmHg 93%
    06:00 +17°C° 0 mm 2 mps 750 mmHg 91%
    07:00 +18°C° 0 mm 2 mps 751 mmHg 89%
    08:00 +20°C° 0 mm 2 mps 751 mmHg 82%
    09:00 +21°C° 0 mm 2 mps 751 mmHg 75%
    10:00 +24°C° 0 mm 2 mps 751 mmHg 68%
    11:00 +25°C° 0 mm 2 mps 751 mmHg 64%
    12:00 +26°C° 0 mm 2 mps 751 mmHg 59%
    13:00 +27°C° 0 mm 1 mps 751 mmHg 55%
    14:00 +27°C° 0.4 mm 2 mps 751 mmHg 58%
    15:00 +26°C° 0.4 mm 2 mps 751 mmHg 62%
    16:00 +26°C° 0.4 mm 2 mps 751 mmHg 65%
    17:00 +25°C° 0.1 mm 2 mps 752 mmHg 69%
    18:00 +25°C° 0.1 mm 2 mps 752 mmHg 73%
    19:00 +24°C° 0.1 mm 1 mps 752 mmHg 77%
    20:00 +23°C° 0 mm 1 mps 752 mmHg 81%
    21:00 +21°C° 0 mm 1 mps 752 mmHg 84%
    22:00 +19°C° 0 mm 1 mps 752 mmHg 87%
    23:00 +19°C° 0 mm 1 mps 752 mmHg 88%

    25 July, Thursday

    Time Temperature Precipitation Wind Pressure Humidity
    00:00 +19°C° 0 mm 1 mps 753 mmHg 89%
    01:00 +18°C° 0 mm 1 mps 753 mmHg 90%
    02:00 +18°C° 0 mm 1 mps 753 mmHg 91%
    03:00 +16°C° 0 mm 1 mps 753 mmHg 92%
    04:00 +16°C° 0 mm 1 mps 753 mmHg 92%
    05:00 +18°C° 0 mm 1 mps 753 mmHg 89%
    06:00 +19°C° 0 mm 1 mps 753 mmHg 85%
    07:00 +20°C° 0 mm 1 mps 753 mmHg 82%
    08:00 +22°C° 0 mm 1 mps 753 mmHg 75%
    09:00 +24°C° 0 mm 1 mps 753 mmHg 68%
    10:00 +26°C° 0 mm 1 mps 753 mmHg 61%
    11:00 +27°C° 0 mm 1 mps 753 mmHg 57%
    12:00 +28°C° 0 mm 2 mps 753 mmHg 52%
    13:00 +29°C° 0 mm 2 mps 753 mmHg 48%
    14:00 +29°C° 0 mm 2 mps 753 mmHg 48%
    15:00 +29°C° 0 mm 2 mps 753 mmHg 48%
    16:00 +29°C° 0 mm 2 mps 753 mmHg 48%
    17:00 +27°C° 0 mm 2 mps 753 mmHg 54%
    18:00 +26°C° 0 mm 1 mps 753 mmHg 61%
    19:00 +25°C° 0 mm 1 mps 753 mmHg 67%
    20:00 +24°C° 0 mm 1 mps 753 mmHg 69%
    21:00 +22°C° 0 mm 1 mps 753 mmHg 71%
    22:00 +20°C° 0 mm 1 mps 753 mmHg 74%
    23:00 +20°C° 0 mm 1 mps 753 mmHg 75%

    26 July, Friday

    Time Temperature Precipitation Wind Pressure Humidity
    00:00 +20°C° 0 mm 1 mps 753 mmHg 75%
    01:00 +19°C° 0 mm 1 mps 753 mmHg 76%
    02:00 +19°C° 0 mm 1 mps 753 mmHg 76%
    03:00 +19°C° 0 mm 1 mps 753 mmHg 77%
    04:00 +19°C° 0 mm 1 mps 753 mmHg 77%
    05:00 +20°C° 0 mm 1 mps 753 mmHg 76%
    06:00 +21°C° 0 mm 1 mps 753 mmHg 76%
    07:00 +22°C° 0 mm 1 mps 753 mmHg 75%
    08:00 +23°C° 0 mm 1 mps 753 mmHg 71%
    09:00 +24°C° 0 mm 1 mps 753 mmHg 67%
    10:00 +26°C° 0 mm 1 mps 753 mmHg 62%
    11:00 +27°C° 0 mm 1 mps 753 mmHg 58%
    12:00 +28°C° 0 mm 1 mps 752 mmHg 53%
    13:00 +29°C° 0 mm 1 mps 752 mmHg 49%
    14:00 +28°C° 0 mm 1 mps 752 mmHg 51%
    15:00 +28°C° 0 mm 1 mps 752 mmHg 53%
    16:00 +27°C° 0 mm 1 mps 751 mmHg 55%
    17:00 +27°C° 0 mm 1 mps 751 mmHg 59%
    18:00 +24°C° 0 mm 0 mps 751 mmHg 63%
    19:00 +24°C° 0 mm 0 mps 751 mmHg 68%
    20:00 +22°C° 0 mm 0 mps 751 mmHg 71%
    21:00 +21°C° 0 mm 0 mps 751 mmHg 74%
    22:00 +19°C° 0 mm 0 mps 751 mmHg 76%
    23:00 +19°C° 0 mm 0 mps 750 mmHg 79%

    27 July, Saturday

    Time Temperature Precipitation Wind Pressure Humidity
    00:00 +18°C° 0 mm 0 mps 750 mmHg 81%
    01:00 +19°C° 0 mm 1 mps 750 mmHg 83%
    02:00 +17°C° 0 mm 0 mps 750 mmHg 84%
    03:00 +17°C° 0 mm 0 mps 750 mmHg 84%
    04:00 +17°C° 0 mm 0 mps 750 mmHg 85%
    05:00 +18°C° 0 mm 0 mps 749 mmHg 82%
    06:00 +19°C° 0 mm 0 mps 749 mmHg 80%
    07:00 +20°C° 0 mm 0 mps 749 mmHg 77%
    08:00 +23°C° 0.2 mm 1 mps 749 mmHg 74%
    09:00 +25°C° 0.2 mm 1 mps 748 mmHg 70%
    10:00 +26°C° 0.2 mm 1 mps 748 mmHg 67%
    11:00 +26°C° 0.8 mm 2 mps 748 mmHg 68%
    12:00 +26°C° 0.8 mm 2 mps 747 mmHg 69%
    13:00 +27°C° 0.8 mm 3 mps 747 mmHg 69%
    14:00 +26°C° 1 mm 3 mps 746 mmHg 71%
    15:00 +26°C° 1 mm 3 mps 746 mmHg 72%
    16:00 +26°C° 1 mm 3 mps 745 mmHg 74%
    17:00 +25°C° 0.8 mm 3 mps 745 mmHg 77%
    18:00 +24°C° 0.8 mm 3 mps 744 mmHg 80%
    19:00 +24°C° 0.8 mm 2 mps 744 mmHg 83%
    20:00 +21°C° 0.1 mm 2 mps 743 mmHg 86%
    21:00 +20°C° 0.1 mm 2 mps 743 mmHg 88%
    22:00 +19°C° 0.1 mm 2 mps 742 mmHg 90%
    23:00 +19°C° 0 mm 2 mps 742 mmHg 91%
    Show more